Retour au catalogue

DMSP 5D-2 F13 DEB

ActifPO
NORAD 42271·DEBRIS·🇺🇸 United States

Lancé Mar 24, 1995 depuis Vandenberg Space Force Base

Loading…

Prochains Passages (prochaines 24 heures)

TLE

FraisSource: Space-Track

Époque: Sep 13, 2026, 17:13 UTC

1 42271U 95015GM  26256.71781065  .00057341  00000-0  45683-2 0  9990
2 42271  98.6764 350.4491 0003225 217.0603 143.0395 15.00103333585513

Suivez DMSP 5D-2 F13 DEB en temps réel avec AllMySat

Download on the App Store